ISS
1 25544U 98067A 10050.02914869 .00001439 00000-0 13513-4 0 6075
2 25544 051.6480 117.1846 0013101 351.0154 073.1045 15.75446199644868
CO-58
1 28895U 05043F 10049.13339100 .00000151 00000-0 41000-4 0 5158
2 28895 098.0321 297.4429 0016914 300.3999 059.5567 14.59847516229615
FALCON
1 30776U 07006E 10047.43047901 .00001254 00000-0 93198-4 0 07732
2 30776 035.4335 057.3322 0001268 261.0322 099.0251 15.03470483161877
MAST
1 31126U 07012K 10044.93507603 .00000107 00000-0 34886-4 0 7972
2 31126 097.9565 093.2203 0093653 249.1577 109.9756 14.53552966150151
CAPE1
1 31130U 07012P 10049.07011307 .00000265 00000-0 72121-4 0 8170
2 31130 097.9554 094.8001 0101728 243.4249 115.6478 14.52136222150374
COMPASS
1 32787U 08021E 10049.32407991 .00000450 00000-0 63658-4 0 5994
2 32787 097.9078 115.6494 0015078 315.3723 044.6313 14.81762469 97896
AAUSAT2
1 32788U 08021F 10048.86567794 .00000383 00000-0 55126-4 0 5920
2 32788 097.9113 115.2994 0014526 319.5856 040.4289 14.81895465 97831
DO-64
1 32789U 08021G 10049.62607876 .00001662 00000-0 21600-3 0 6091
2 32789 097.9151 116.4007 0014729 312.9028 047.0967 14.81973267 97940
CO-66
1 32791U 08021J 10048.72163066 .00000212 00000-0 33677-4 0 5897
2 32791 097.9099 115.0803 0015532 316.4863 043.5111 14.81566093 97769
RS-30
1 32953U 08025A 10049.64883551 .00000010 00000-0 00000 0 0 5289
2 32953 082.5003 103.4008 0018864 005.6542 354.4750 12.43003433 79015
TACSAT-3
1 35001U 09028A 10048.88124709 .00010021 00000-0 24596-3 0 2187
2 35001 040.4499 210.0830 0020998 194.7732 165.2471 15.40345211 42228
PHARMSAT
1 35002U 09028B 10047.84331917 .00008335 00000-0 20081-3 0 02072
2 35002 040.4681 214.7966 0024428 190.4687 169.5622 15.40984345042072
HAWKSAT1
1 35003U 09028C 10047.81588178 .00017116 00000-0 38391-3 0 02174
2 35003 040.4535 212.5732 0022272 198.7926 161.2059 15.42690860042105
CP6
1 35004U 09028D 10049.80212023 .00020625 00000-0 45380-3 0 2107
2 35004 040.4609 200.3611 0023764 212.0164 147.9207 15.43139174 42406
AEROCUB3
1 35005U 09028E 10049.82066540 .00039061 00000-0 82865-3 0 2238
2 35005 040.4736 200.8041 0023580 212.3155 147.6216 15.43980962 42405
DRAGNSAT
1 35690U 09038B 10049.14740193 .00272385 43473-4 44635-3 0 2637
2 35690 051.6333 102.6667 0005994 041.2731 318.8665 16.02690791 32192
POLLUX
1 35693U 09038E 10049.50004425 .00179327 00000-0 36447-3 0 2630
2 35693 051.6324 102.8400 0004271 046.9757 313.2143 15.98718823 32190
CASTOR
1 35694U 09038F 10049.49369013 .00051871 00000-0 18969-3 0 1974
2 35694 051.6368 108.2170 0004247 078.3344 281.8663 15.87599985 32121
METEOR-M
1 35865U 09049A 10049.27649095 .00000176 00000-0 10000-3 0 1300
2 35865 098.7760 103.8386 0002453 009.7993 350.3228 14.21828712 21828
RS-38
1 35869U 09049E 10049.11980035 .00000176 00000-0 10000-3 0 1321
2 35869 098.7752 103.7039 0004557 000.8425 359.2730 14.21975474 21808
